Regional Weather Roundup
Issued by NWS

Home | Current Version | Previous Version | Graphics & Text | Print | Product List | Glossary On
Versions: 1 2 3 4 5 6 7 8 9 10 11 12 13 14 15 16 17 18 19 20 21 22 23 24 25 26 27 28 29 30 31 32 33 34 35 36 37 38 39 40 41 42 43 44 45 46 47 48 49 50
000
ASUS43 KFSD 262302
RWRSD

WEATHER ROUNDUP FOR SOUTH DAKOTA
NATIONAL WEATHER SERVICE SIOUX FALLS SD
500 PM CST SUN FEB 26 2017

NOTE: "FAIR" INDICATES FEW OR NO CLOUDS BELOW 12,000 FEET WITH NO
SIGNIFICANT WEATHER AND/OR OBSTRUCTIONS TO VISIBILITY.


SDZ001>005-009-010-012>017-270000-
NORTHWEST AND NORTH CENTRAL SOUTH DAKOTA

CITY           SKY/WX    TMP DP  RH WIND       PRES   REMARKS
BUFFALO          N/A     34  18  52 NW21      29.65S WCI  22
FAITH            N/A     37  18  46 W16       29.74R
MOBRIDGE       CLOUDY    38  22  52 NW6       29.74R
$$

SDZ012>016-024>037-041>051-057-063-072>074-270000-
SOUTHWEST AND SOUTH CENTRAL SOUTH DAKOTA

CITY           SKY/WX    TMP DP  RH WIND       PRES   REMARKS
RAPID CTY ARPT MOSUNNY   38  14  37 NE7       29.75S
PIERRE         PTSUNNY   42  12  29 NW13      29.77S
CUSTER         CLOUDY    23   4  44 W10       29.68S WCI  12
ELLSWORTH AFB  CLOUDY    37  14  38 NE5       29.74F
PHILIP         PTSUNNY   42  12  29 NW13      29.78R
PINE RIDGE     CLOUDY    27  13  55 SW7       29.82S WCI  19
SPEARFISH      FAIR      34   9  35 W9        29.72F WCI  26
WINNER         FAIR      36  22  56 SW14      29.82S
$$

SDZ004>011-016>023-039-040-270000-
NORTHEAST SOUTH DAKOTA

CITY           SKY/WX    TMP DP  RH WIND       PRES   REMARKS
ABERDEEN       CLOUDY    31  19  61 E9        29.81F WCI  23
WATERTOWN      SUNNY     35  20  54 W10       29.81R WCI  27
BROOKINGS      MOSUNNY   38  22  52 SW12      29.82R
SISSETON         N/A     25  17  72 NE3       29.87R
$$

SDZ017-020-022-023-036>040-048>070-270000-
SOUTHEAST SOUTH DAKOTA

CITY           SKY/WX    TMP DP  RH WIND       PRES   REMARKS
SIOUX FALLS    MOSUNNY   35  25  66 SW8       29.88R WCI  29
HURON          MOSUNNY   42  15  33 W13       29.80R
CHAMBERLAIN    MOSUNNY   42  20  42 SW15      29.81S
MITCHELL       PTSUNNY   39  23  52 S12       29.84S
YANKTON        SUNNY     37  21  52 S10       29.89S
$$

ABBREVIATIONS USED IN REMARKS
   TC - TEMPERATURE IN CELSIUS
  WCI - WIND CHILL INDEX
   HX - HEAT INDEX
  VSB - VISIBILITY





USA.gov is the U.S. government's official web portal to all federal, state and local government web resources and services.